Theta_e
327 331 332 333 335 349 344 347 347 347 346 349 349 358 356 353 347 348 345 344 344 344 342 344 343 344 347 347 346 347 346 350 349 353 352 352 351 349 351 352 351 353 352 353
326 328 331 333 334 345 346 346 347 349 348 348 345 361 355 349 348 348 347 345 345 343 342 344 345 345 349 349 349 348 348 349 350 352 351 351 350 350 351 353 352 352 350 354
323 327 330 331 333 347 346 344 344 349 346 342 341 360 359 353 353 351 350 347 345 344 343 345 345 346 349 351 351 350 349 348 349 350 352 353 352 352 352 351 352 355 355 353
322 324 327 327 328 332 336 344 337 337 337 341 339 341 349 352 355 346 343 349 346 344 344 345 345 346 348 351 352 350 353 349 350 354 355 354 343 352 353 352 351 349 351 354
320 322 323 324 327 329 330 333 333 334 333 331 338 334 350 350 354 348 345 350 348 345 345 345 346 346 348 351 351 350 355 351 355 359 356 352 349 352 352 352 350 345 347 353
321 323 323 323 326 326 326 326 326 327 329 330 332 334 351 350 353 350 350 343 349 347 346 345 347 347 348 353 353 350 352 357 354 352 357 354 354 355 355 353 349 345 344 350
322 323 323 324 324 324 324 320 324 329 330 330 328 331 332 347 346 345 345 346 344 347 347 346 347 347 348 351 354 356 353 358 356 354 358 356 352 355 354 351 350 350 349 350
319 322 324 324 322 322 322 320 321 327 329 328 323 327 344 347 348 345 343 343 342 346 348 348 348 348 348 351 352 358 356 358 357 355 353 360 354 353 354 352 351 352 351 352
327 327 328 325 325 322 323 321 320 319 320 320 323 329 342 341 339 340 339 344 344 342 348 349 348 349 349 352 352 354 357 358 359 358 356 357 360 357 353 351 351 353 351 353
327 327 327 326 325 325 325 323 318 317 323 326 325 325 327 342 340 339 336 338 341 344 349 350 350 350 351 353 354 355 358 359 359 362 360 357 361 359 356 356 355 354 351 350
326 328 330 330 328 326 323 321 321 317 317 320 321 324 330 342 342 338 339 339 341 342 351 350 351 351 352 354 355 360 361 363 363 364 363 362 360 361 357 358 355 354 350 350
329 328 328 327 327 328 328 329 323 322 324 321 318 321 324 328 332 337 337 335 338 340 350 351 349 352 352 354 356 361 363 365 365 364 365 365 362 362 360 356 354 353 352 352
327 328 326 325 324 325 328 328 328 326 326 324 324 323 330 330 339 343 335 336 341 340 342 348 350 352 352 354 356 363 365 365 365 365 365 364 363 363 361 356 354 353 351 349
329 325 325 325 324 326 328 329 327 327 328 328 328 330 329 330 333 338 342 343 344 343 341 342 348 351 353 354 357 364 365 366 366 365 364 363 362 361 361 360 356 354 352 349
326 327 328 328 327 327 327 327 327 326 327 327 327 328 328 329 336 336 337 347 348 348 346 346 346 348 354 353 357 363 364 366 365 362 362 362 362 361 361 358 357 354 351 348
322 323 326 325 323 321 324 326 328 327 327 327 326 326 341 334 347 347 345 348 349 350 351 350 349 346 353 354 359 360 363 365 363 361 361 361 362 361 360 356 353 352 348 347
317 318 323 324 325 323 325 327 327 327 328 327 329 337 343 347 347 344 345 343 340 350 356 354 352 348 346 360 361 360 362 364 363 362 361 361 361 360 357 354 351 348 346 344
316 318 322 324 324 324 322 325 327 328 330 335 343 341 342 348 339 337 337 338 338 334 352 360 360 360 350 356 362 362 363 363 363 363 361 362 360 355 354 351 347 345 344 339
318 318 321 323 324 323 325 327 330 334 337 347 346 343 336 340 339 343 337 336 336 335 354 356 359 360 363 357 365 362 365 364 364 365 364 361 356 352 350 348 344 345 340 335
323 319 321 326 327 329 330 330 329 331 334 344 346 343 341 340 345 344 343 337 335 347 355 355 356 359 360 362 363 363 363 366 365 365 363 357 352 351 349 345 342 339 336 332
330 335 333 334 335 335 334 336 334 339 346 342 344 342 341 342 341 341 341 348 354 355 354 355 356 356 356 357 364 363 362 365 366 363 359 354 350 351 345 342 339 336 332 330
333 335 333 333 335 336 333 334 339 334 333 333 340 340 338 336 336 336 336 337 339 353 354 353 353 353 354 353 362 364 364 366 363 358 354 351 350 347 344 341 337 333 331 329
330 330 331 334 333 329 326 327 329 330 332 332 328 338 336 333 332 332 333 332 333 336 354 353 352 352 352 352 352 358 359 362 358 354 351 349 346 345 342 338 334 329 329 327
325 329 329 329 329 327 326 326 324 327 326 325 326 325 330 330 327 327 327 328 331 333 350 353 352 351 350 351 351 353 355 355 354 352 349 347 344 341 337 335 331 327 326 325
324 325 327 326 326 328 327 325 324 324 324 325 324 323 325 327 327 327 325 325 326 332 336 351 352 351 350 350 348 348 352 352 351 350 348 343 341 337 334 332 328 327 324 323
323 324 325 326 326 327 326 322 320 320 322 323 323 322 320 321 322 324 324 324 324 332 334 339 350 351 350 349 347 347 348 350 350 349 344 338 335 332 331 329 325 325 324 323
Wind_Speed
9 4 7 13 7 17 13 12 18 24 23 18 19 17 16 14 12 14 12 13 13 13 10 25 30 26 28 34 34 31 26 32 29 28 23 19 15 13 13 15 19 16 11 9
8 8 11 14 18 21 17 10 7 14 26 17 21 16 18 18 15 11 13 12 13 11 12 18 24 29 31 35 35 35 31 33 30 28 25 18 17 16 18 20 17 11 11 10
9 12 14 14 13 15 10 10 11 13 24 8 4 8 19 3 6 9 1 6 14 16 15 17 17 25 28 31 37 36 32 34 29 25 22 18 18 10 9 18 13 13 13 10
8 13 16 15 11 9 10 21 9 8 3 2 2 2 2 4 6 7 20 10 17 19 16 15 18 21 26 35 39 38 34 34 29 28 23 21 22 15 14 17 12 12 12 10
12 9 9 11 11 9 7 8 6 8 8 5 5 5 5 6 5 8 18 11 19 19 18 20 20 27 29 36 38 39 33 35 34 23 27 21 19 18 17 16 15 13 12 9
11 12 7 7 6 6 10 9 10 7 3 5 9 5 6 7 11 14 20 17 14 18 19 22 30 31 29 35 36 40 38 37 35 30 23 24 22 20 20 19 17 14 14 13
9 13 10 6 6 8 7 7 5 5 4 7 11 4 8 22 16 16 22 13 15 16 20 22 21 21 28 35 35 37 40 36 36 31 28 27 26 20 22 21 19 16 17 15
5 9 5 8 9 9 7 4 5 4 4 7 8 6 4 13 15 12 12 8 10 12 14 23 24 27 31 36 37 35 38 35 38 36 35 27 25 24 24 23 21 22 23 21
6 9 14 13 5 11 6 3 7 2 5 4 4 6 5 5 7 14 13 12 19 16 16 22 24 30 33 35 39 37 39 37 38 38 36 34 28 25 25 23 22 23 24 24
8 9 8 10 8 7 2 4 6 4 3 6 7 8 3 6 6 5 10 4 11 19 22 19 22 26 34 35 40 38 43 41 42 37 37 36 30 28 25 23 24 20 22 23
9 6 11 8 5 6 5 2 3 4 5 3 3 7 2 5 13 7 19 22 9 12 21 19 16 26 35 32 38 37 39 36 36 35 34 31 31 30 27 24 24 22 25 27
8 4 6 11 6 12 6 9 2 5 9 5 5 8 7 8 5 14 23 15 9 6 17 19 17 22 30 29 34 37 36 36 38 38 34 31 31 32 31 26 26 23 26 26
6 5 5 12 9 14 7 9 8 5 3 4 3 6 8 10 15 13 6 14 5 7 8 14 18 15 24 28 34 34 36 36 36 34 34 31 34 35 35 30 30 29 28 26
7 3 5 6 9 6 9 13 10 5 3 6 5 9 10 8 6 9 9 8 8 8 8 6 10 11 23 30 35 35 37 38 37 36 32 32 34 35 34 33 36 33 30 26
3 5 6 9 9 10 11 13 12 8 8 4 10 10 13 8 5 9 9 9 9 9 10 9 8 6 16 25 30 33 37 37 39 37 36 34 32 31 32 36 37 33 30 26
8 6 7 6 9 11 12 10 9 9 8 8 9 15 7 10 24 25 25 9 8 7 6 7 7 8 10 24 27 32 35 35 37 37 36 36 39 36 37 37 36 34 31 24
6 5 5 6 9 10 7 9 9 9 8 6 6 2 6 17 16 15 14 14 21 30 13 10 10 6 6 21 31 32 33 35 36 34 34 36 39 39 40 38 35 32 29 27
8 5 3 6 5 6 10 9 10 10 7 7 8 4 7 10 10 9 11 18 25 34 29 16 14 20 17 10 26 34 35 34 32 30 31 35 38 36 38 36 33 34 31 30
12 6 3 4 5 8 9 8 10 4 6 7 7 5 3 6 4 6 7 11 10 16 23 16 22 26 28 16 28 33 33 36 34 31 30 33 34 36 39 39 37 36 34 31
8 9 5 2 4 7 7 14 9 6 1 6 12 9 7 7 6 3 10 6 12 12 12 16 21 25 31 38 31 31 30 29 29 30 32 32 34 39 38 35 36 34 32 32
4 2 3 4 4 5 5 9 9 3 5 7 10 6 3 3 3 1 1 1 2 5 10 17 17 18 24 31 8 21 23 21 25 34 35 35 39 41 34 29 30 32 30 29
1 2 3 2 3 5 9 7 6 7 6 8 3 6 5 4 5 6 8 6 7 6 8 14 15 17 23 27 14 4 8 18 29 32 32 35 40 36 36 35 31 31 32 31
4 3 2 2 3 5 9 7 3 3 2 5 9 3 5 5 6 6 5 7 6 10 3 7 10 12 14 19 19 10 8 21 31 33 30 30 29 30 36 36 36 34 32 30
7 6 1 5 7 8 9 6 11 8 6 7 5 7 8 4 6 5 5 7 6 6 9 1 4 7 10 8 10 5 5 16 25 25 25 28 31 31 30 34 36 30 30 27
5 8 6 7 7 7 7 9 7 7 7 6 5 6 6 7 6 4 2 3 6 9 11 7 5 4 4 5 1 3 6 16 21 20 22 26 27 33 32 33 32 34 34 33
7 10 6 10 8 3 3 8 10 11 9 5 5 5 6 6 6 5 5 5 6 12 15 8 11 12 12 8 8 7 11 18 21 18 20 22 27 26 25 27 24 28 32 31
Wind_Direction
287 216 243 257 271 155 123 106 307 312 290 271 242 206 183 188 175 165 173 173 186 189 193 176 180 186 175 179 180 182 183 176 174 180 180 191 203 213 209 204 183 189 175 180
295 266 254 262 272 141 144 175 190 209 263 261 268 170 179 176 178 163 173 175 190 191 186 174 177 186 165 169 175 181 182 178 178 185 193 195 206 222 226 182 178 177 169 172
232 256 269 268 272 153 188 203 248 212 239 253 287 145 157 67 95 122 63 246 188 192 186 173 178 177 165 169 175 178 180 182 186 191 190 185 176 180 186 187 177 173 173 174
235 248 266 279 279 259 223 222 287 319 23 272 38 217 129 180 175 169 219 216 203 188 183 173 175 172 169 168 172 175 181 184 186 192 185 185 182 172 188 185 181 185 192 179
265 273 262 272 274 292 277 298 331 326 330 16 300 80 251 184 187 196 244 234 218 185 180 178 177 177 173 172 174 177 174 182 184 176 188 191 185 196 196 190 189 182 179 192
263 280 269 259 306 353 341 352 337 322 352 339 261 172 246 190 191 210 231 235 213 186 182 179 176 176 173 169 172 180 181 183 189 195 189 194 190 196 180 181 184 185 191 200
281 269 271 277 309 337 346 351 328 334 340 233 259 292 229 199 192 198 214 230 273 197 182 173 176 177 175 173 171 175 180 182 191 195 194 198 199 192 189 183 191 190 194 194
249 311 289 289 187 203 245 188 161 287 275 268 327 296 185 166 191 182 183 235 180 241 197 177 178 179 182 176 175 174 180 182 191 196 199 199 200 199 195 189 198 201 192 196
9 322 330 325 291 168 252 281 237 300 290 7 283 347 8 84 168 207 187 191 219 218 220 179 179 180 185 176 177 177 180 185 187 195 200 200 202 200 192 198 204 209 204 193
324 338 313 307 355 351 118 234 358 352 2 325 307 298 207 225 210 358 40 262 229 200 204 177 180 179 183 176 177 179 181 183 189 192 198 203 201 200 196 203 202 200 200 192
6 16 305 342 325 318 318 270 239 166 149 198 296 286 163 194 188 172 84 34 330 169 177 178 173 176 179 173 174 175 178 179 180 187 192 197 198 200 202 201 193 192 187 183
10 275 326 296 347 19 31 11 36 112 291 230 168 273 315 4 28 149 149 166 188 91 180 177 178 171 174 169 172 172 174 177 181 185 188 192 193 197 200 199 196 189 181 182
18 342 350 335 341 2 7 334 324 340 46 285 112 270 44 31 52 42 164 176 157 109 90 179 176 170 174 171 171 171 173 178 180 183 184 187 194 194 198 198 195 185 181 179
108 253 217 248 269 299 333 330 331 342 10 306 285 324 343 6 74 82 79 68 47 38 41 57 172 176 175 174 173 173 176 177 177 178 181 186 193 194 194 195 190 187 184 180
138 252 271 283 315 329 319 310 310 311 289 313 300 322 306 341 159 145 127 103 78 45 14 19 10 185 179 180 178 176 177 176 176 178 181 189 190 191 189 188 186 185 184 185
332 311 334 327 321 314 311 308 297 290 291 297 297 292 13 37 52 43 12 40 99 88 65 358 357 353 208 180 174 176 177 177 177 180 184 184 187 190 185 185 183 183 183 183
287 294 338 294 312 314 323 292 306 295 311 325 298 311 316 47 44 32 36 30 20 349 347 359 329 313 344 183 171 173 173 175 180 183 185 183 180 178 176 179 180 178 182 182
234 243 220 251 293 285 253 276 293 293 317 41 75 54 56 85 87 58 37 48 22 352 304 342 357 353 334 217 180 168 171 175 182 187 184 178 171 164 167 170 174 176 187 185
213 197 225 202 232 265 299 281 336 333 1 87 94 106 106 153 78 8 356 66 63 318 319 340 346 351 348 321 185 176 169 176 179 182 180 168 160 155 165 173 176 180 183 184
241 192 149 251 228 254 261 291 291 283 245 99 81 59 26 9 50 254 225 180 198 205 292 345 352 357 356 344 175 173 176 172 178 171 162 157 157 162 171 174 173 171 182 183
308 339 210 255 264 295 321 356 335 47 329 360 97 114 59 72 177 291 217 32 69 62 4 4 5 6 357 353 181 165 171 177 168 161 154 154 161 173 171 167 165 171 173 181
306 312 263 306 330 295 17 23 80 215 308 338 320 126 100 331 36 67 27 42 359 7 18 14 2 7 4 2 20 24 137 155 153 147 151 156 169 169 169 169 172 173 172 181
360 84 270 323 264 323 23 1 36 122 113 12 15 341 83 56 22 39 9 33 21 339 21 27 359 354 15 11 9 50 115 156 156 154 159 162 160 164 167 167 167 169 176 181
320 8 0 10 329 334 325 27 22 24 54 22 12 12 356 6 20 16 28 1 352 360 324 315 345 343 349 19 19 19 156 168 163 157 158 159 158 158 160 166 169 167 174 179
252 333 296 289 303 329 338 345 344 340 347 351 352 340 335 350 339 345 342 348 324 309 325 262 254 257 263 292 71 312 208 192 178 173 166 162 164 161 162 171 171 179 190 192
253 254 270 273 272 276 319 330 332 333 317 274 276 306 326 331 319 308 288 270 287 293 297 284 263 230 231 215 233 173 224 204 192 178 169 161 157 158 161 159 169 190 197 200